Regional Weather Roundup
Issued by NWS Cleveland, OH

Home | Current Version | Previous Version | Graphics & Text | Print | Product List | Glossary On
Versions: 1 2 3 4 5 6 7 8 9 10 11 12 13 14 15 16 17 18 19 20 21 22 23 24 25 26 27 28 29 30 31 32 33 34 35 36 37 38 39 40 41 42 43 44 45 46 47 48 49 50
000
ASUS41 KCLE 280710
RWRCLE
OHIO REGIONAL WEATHER ROUNDUP
NATIONAL WEATHER SERVICE WILMINGTON, OH
200 AM EST SAT FEB 28 2015

NOTE: "FAIR" INDICATES FEW OR NO CLOUDS BELOW 12,000 FEET WITH NO
SIGNIFICANT WEATHER AND/OR OBSTRUCTIONS TO VISIBILITY.

OHZ001>008-015>018-024>027-034-035-043-044-280800-
   NORTHWEST OHIO

CITY           SKY/WX    TMP DP  RH WIND       PRES   REMARKS
DEFIANCE       MOCLDY    -2  -7  79 CALM      30.69R
FINDLAY        PTCLDY    -1 -10  65 S3        30.67R
TOLEDO EXPRESS PTCLDY    -4  -8  83 CALM      30.68R
TOLEDO EXEC    PTCLDY     1  -8  66 SW3       30.69S
LIMA           FAIR       4  -5  66 S7        30.65S WCI  -8
$$

OHZ009>014-019>023-028>033-038-089-280800-
   NORTHEAST OHIO

CITY           SKY/WX    TMP DP  RH WIND       PRES   REMARKS
CLE-HOPKINS    PTCLDY     0  -6  76 S3        30.71R
CLE-LAKEFRONT  CLEAR      8  -2  63 S5        30.70R WCI   0
CUY CO. ARPT   NOT AVBL
LORAIN-ELYRIA  PTCLDY    -5 -10  79 S3        30.69R
ASHTABULA      PTCLDY    -9 -15  75 CALM      30.68R
AKRON-CANTON   PTCLDY     4  -5  66 CALM      30.64S
WOOSTER        MOCLDY   -12 -16  82 CALM      30.66S
MANSFIELD      MOCLDY     0  -4  83 CALM      30.64R
YOUNGSTOWN     PTCLDY    -1  -6  79 CALM      30.65R
$$

OHZ042-051>053-060>062-070>072-077>081-280800-
  SOUTHWEST OHIO

CITY           SKY/WX    TMP DP  RH WIND       PRES   REMARKS
CINC-COVINGTON NOT AVBL
CINC-LUNKEN    CLEAR      8   1  73 CALM      30.72R
HAMILTON       PTCLDY     2  -2  83 NE3       30.70R
DAYTON         MOCLDY    10  -1  61 SE6       30.67R WCI   0
WRIGHT-PAT AFB PTCLDY     7   1  73 N2        30.68R
DAYTON GENERAL PTCLDY    10  -2  58 E3        30.66R
WILMINGTON     PTCLDY     3  -6  66 E3        30.66R
$$

OHZ036-037-039>041-045>050-054>059-063>069-073>076-082>088-280800-
  CENTRAL AND SOUTHEAST OHIO

CITY           SKY/WX    TMP DP  RH WIND       PRES   REMARKS
COLUMBUS       MOCLDY     5  -3  69 CALM      30.69R
OSU AIRPORT    PTCLDY     6  -3  66 CALM      30.69R
BOLTON FIELD   PTCLDY   N/A N/A N/A CALM      30.69R
RICKENBACK AFB PTCLDY     5  -2  72 CALM      30.69R
NEWARK         PTCLDY    -1  -6  79 CALM      30.68R
MARION         MOCLDY    -6 -13  71 SE3       30.67R
LANCASTER      PTCLDY     2  -3  80 CALM      30.69R
ZANESVILLE     PTCLDY     5   0  79 CALM      30.68R
NEW PHILLY     PTCLDY     2  -5  72 CALM      30.69R
$$


USA.gov is the U.S. government's official web portal to all federal, state and local government web resources and services.